SCP
0 0 0 0 0 0 0 0 0 0 0 0 0 0 0 0 0 0 0 0 0 0 0 0 0 0 0 0 0 0 0 0 0 0 0 0 0 0 0 0 0 0 0 0
0 0 0 0 0 0 0 0 0 0 0 0 0 0 0 0 0 0 0 0 0 0 0 0 0 0 0 0 0 0 0 0 0 0 0 0 0 0 0 0 0 0 0 0
0 0 0 0 0 0 0 0 0 0 0 0 0 0 0 0 0 0 0 0 0 0 0 0 0 0 0 0 0 0 0 0 0 0 0 0 0 0 0 0 0 0 0 0
0 0 0 0 0 0 0 0 0 0 0 0 0 0 0 0 0 0 0 0 0 0 0 0 0 0 0 0 0 0 0 0 0 0 0 0 0 0 0 0 0 0 0 0
0 0 0 0 0 0 0 0 0 0 0 0 0 0 0 0 0 0 0 0 0 0 0 0 0 0 0 0 0 0 0 0 0 0 0 0 0 0 0 0 0 0 0 0
0 0 0 0 0 0 0 0 0 0 0 0 0 0 0 0 0 0 0 0 0 0 0 0 0 0 0 0 0 0 0 0 0 0 0 0 0 0 0 0 0 0 0 0
0 0 0 0 0 0 0 0 0 0 0 0 0 0 0 0 0 0 0 0 0 0 0 0 0 0 0 0 0 0 0 0 0 0 0 0 0 0 0 0 0 0 0 0
0 0 0 0 0 0 0 0 0 0 0 0 0 0 0 0 0 0 0 0 0 0 0 0 0 0 0 0 0 0 0 0 0 0 0 0 0 0 0 0 0 0 0 0
0 0 0 0 0 0 0 0 0 0 0 0 0 0 0 0 0 0 0 0 0 0 0 0 0 0 0 0 0 0 0 0 0 0 0 0 0 0 0 0 0 0 0 0
0 0 0 0 0 0 0 0 0 0 0 0 0 0 0 0 0 0 0 0 0 0 -0 0 0 0 0 0 0 0 0 0 0 0 0 0 0 0 0 0 0 0 0 0
0 0 0 0 0 0 0 0 0 0 0 0 0 0 0 0 0 0 0 0 0 0 -0 0 0 0 0 0 0 0 0 0 0 0 0 0 0 0 0 0 0 0 0 0
0 0 0 0 0 0 0 0 0 0 0 0 0 0 0 0 0 0 0 0 0 0 -0 -0 0 0 0 0 0 0 0 0 0 0 0 0 0 0 0 0 0 0 0 0
0 0 0 0 0 0 0 0 0 0 0 0 0 0 0 0 0 0 0 0 0 0 0 0 0 0 0 0 0 0 0 0 0 0 0 0 0 0 0 0 0 0 0 0
0 0 0 0 0 0 0 0 0 0 0 0 0 0 0 0 0 0 0 0 0 0 0 0 0 0 0 0 0 0 0 0 0 0 0 0 0 0 0 0 0 0 0 0
0 0 0 0 0 0 0 0 0 0 0 0 0 0 0 0 0 0 0 0 0 0 0 0 0 0 0 0 0 0 0 0 0 0 0 0 0 0 0 0 0 0 0 0
0 0 0 0 0 0 0 0 0 0 0 0 0 0 0 0 0 0 0 0 0 0 0 0 0 0 0 0 0 0 0 0 0 0 0 0 0 0 0 0 0 0 0 0
0 0 0 0 0 0 0 0 0 0 0 0 0 0 0 0 0 0 0 0 0 0 0 0 0 0 0 0 0 0 0 0 0 0 0 0 0 0 0 0 0 0 0 0
0 0 0 0 0 0 0 0 0 0 0 0 0 0 0 0 0 0 0 0 0 0 0 0 0 0 0 0 0 0 0 0 0 0 0 0 0 0 0 0 0 0 0 0
0 0 0 0 0 0 0 0 0 0 0 0 0 0 0 0 0 0 0 0 0 0 0 0 0 0 0 0 0 0 0 0 0 0 0 0 0 0 0 0 0 0 0 0
0 0 0 0 0 0 0 0 0 0 0 0 0 0 0 0 0 0 0 0 0 0 0 0 0 0 0 0 0 0 0 0 0 0 0 0 0 0 0 0 0 0 0 0
0 0 0 0 0 0 0 0 0 0 -0 0 0 0 0 0 0 0 0 0 0 0 0 0 0 0 0 0 0 0 0 0 0 0 0 0 0 0 0 0 0 0 0 0
0 0 0 0 0 0 0 0 0 -0 -0 0 0 0 0 0 0 0 0 0 0 0 0 0 0 0 0 0 0 0 0 0 0 0 0 0 0 0 0 0 0 0 0 0
0 0 0 0 0 0 0 0 0 -0 -0 0 0 0 0 0 0 0 0 0 0 0 0 0 0 0 0 0 0 0 0 0 0 0 0 0 0 0 0 0 0 0 0 0
0 0 0 0 0 0 0 0 0 0 0 0 0 0 0 0 0 0 0 0 0 0 0 0 0 0 0 0 0 0 0 0 0 0 0 0 0 0 0 0 0 0 0 0
-0 -0 -0 0 0 0 0 0 0 0 0 0 0 0 0 0 0 0 0 0 0 0 0 0 0 0 0 0 0 0 0 0 0 0 0 0 0 0 0 0 0 0 0 0
-0 -0 0 0 0 0 0 0 0 0 0 0 0 0 0 0 0 0 0 0 0 0 0 0 0 0 0 0 0 0 0 0 0 0 0 0 0 0 0 0 0 0 0 0
0 0 0 0 0 0 0 0 0 0 0 0 0 0 0 0 0 0 0 0 0 0 0 0 0 0 0 0 0 0 0 0 0 0 0 0 0 0 0 0 0 0 0 0
Wind_Speed
2 2 4 5 7 10 12 10 10 8 10 11 8 7 5 5 5 6 6 7 9 8 7 7 6 6 6 5 5 5 5 5 4 4 4 4 4 4 4 5 5 5 5 5
1 1 3 4 7 10 12 11 13 12 16 10 7 5 5 6 7 8 9 9 9 8 9 9 9 8 7 6 6 6 6 5 5 5 5 5 4 4 5 5 5 5 6 5
2 1 1 7 10 12 8 8 9 16 15 6 6 8 9 9 9 11 11 10 10 11 11 10 10 9 9 7 6 6 6 6 6 6 5 5 5 5 4 4 4 5 5 5
2 1 7 8 2 6 8 9 10 10 9 7 10 9 8 8 10 11 10 9 9 9 9 8 8 8 8 7 7 7 6 6 6 6 6 5 5 4 4 3 3 3 4 4
3 3 8 8 4 5 6 7 8 12 14 11 6 4 6 8 9 10 9 7 7 7 7 8 9 9 9 8 7 7 7 7 7 6 6 6 5 4 3 3 3 2 2 3
3 3 6 6 3 3 3 5 4 5 8 7 3 3 6 4 6 5 4 3 4 6 6 9 9 9 10 9 8 8 7 7 7 6 6 6 5 4 3 3 2 2 2 1
5 5 8 7 3 3 2 5 4 3 4 4 6 6 3 1 2 3 3 4 5 6 6 7 9 9 9 8 8 7 6 7 6 6 6 5 5 3 3 3 3 2 1 0
5 6 9 3 4 5 6 4 3 3 2 2 3 1 1 2 3 3 4 4 5 6 5 5 8 9 8 8 6 6 7 7 6 6 5 5 5 4 4 4 3 2 1 2
7 8 5 2 5 4 2 3 3 2 2 1 2 1 1 2 2 2 3 4 4 5 6 5 6 7 8 7 7 8 7 7 6 6 5 5 6 5 4 3 3 3 2 3
4 7 6 5 5 4 4 4 4 2 1 1 1 2 2 2 2 3 3 4 4 5 5 6 6 6 6 7 8 8 8 7 6 6 6 5 4 5 4 4 4 3 3 4
5 6 6 5 3 3 3 2 2 1 0 1 1 1 1 2 2 3 3 4 5 5 6 6 7 7 6 8 9 9 8 7 7 6 6 5 5 5 5 5 6 6 5 4
5 4 3 6 5 3 2 2 2 1 0 1 1 1 1 1 1 2 2 3 4 5 5 6 7 7 7 9 9 9 8 7 6 5 5 5 4 4 8 8 11 12 10 7
5 4 5 6 5 3 1 2 2 1 0 1 1 1 0 0 0 1 2 3 4 5 5 5 6 7 8 9 10 10 9 8 6 6 6 5 5 5 4 5 9 11 11 11
5 4 5 3 3 3 2 2 2 2 2 2 2 2 2 1 1 1 2 3 4 4 4 5 6 7 7 9 10 10 9 9 8 7 6 6 6 6 5 4 4 4 7 11
5 3 4 3 2 2 2 1 2 2 2 2 2 2 2 2 2 3 3 3 2 3 4 4 6 6 6 9 10 10 9 7 7 6 6 6 6 5 5 5 5 4 3 4
7 5 3 2 3 2 1 1 0 1 1 2 2 3 3 3 3 3 3 2 2 3 4 4 6 5 5 8 9 8 8 11 10 7 6 6 6 6 6 6 6 5 6 5
6 5 3 3 3 2 1 1 1 1 1 2 3 3 3 3 3 3 4 3 3 3 3 3 4 3 4 7 8 6 6 8 13 8 7 7 7 7 7 7 7 6 6 7
5 5 4 4 3 2 1 0 1 1 1 2 3 3 3 3 3 4 5 4 3 2 2 3 3 3 3 5 6 5 5 6 7 7 7 7 7 7 7 7 7 7 5 6
4 3 2 2 1 1 1 1 1 2 2 2 2 3 3 3 4 4 4 3 3 4 4 4 5 2 3 4 5 4 5 6 6 6 6 9 8 6 7 7 7 7 6 5
4 3 3 3 3 3 2 2 2 2 2 2 2 3 3 4 4 4 4 2 2 3 5 5 4 2 2 3 5 3 5 6 6 6 6 6 6 6 6 7 7 6 6 6
4 3 3 3 3 3 2 2 2 2 2 2 2 3 3 4 4 4 3 3 3 5 5 6 3 3 2 3 4 3 4 5 5 5 6 6 6 6 6 6 6 6 6 6
3 3 2 2 2 2 2 2 2 2 2 2 3 3 3 4 4 4 3 2 4 8 5 3 3 4 5 4 2 2 3 4 4 4 5 5 6 6 6 6 6 6 6 5
2 2 2 2 2 2 2 2 2 2 2 2 3 3 3 3 3 3 4 3 4 8 5 3 6 8 7 2 2 2 3 4 4 4 5 5 5 6 6 6 6 5 5 5
3 2 3 2 2 2 3 3 2 2 2 3 2 2 2 3 2 2 3 7 9 9 4 6 9 9 6 1 1 2 3 3 4 4 4 4 4 5 5 5 5 5 5 6
3 3 3 3 3 4 4 3 3 3 3 3 3 3 2 2 2 3 3 4 8 7 4 6 9 8 4 2 2 2 3 3 4 4 4 4 4 4 4 4 5 4 4 5
4 4 4 4 4 4 3 2 3 3 2 3 3 2 2 2 2 3 3 4 5 6 4 3 4 5 3 3 3 3 3 3 4 3 3 3 4 4 4 4 5 5 4 4
4 4 3 4 4 4 3 3 4 4 3 3 4 3 2 2 2 2 3 3 3 3 3 3 3 3 3 3 3 3 3 3 3 3 3 3 3 4 4 5 4 4 4 4
Wind_Direction
226 206 167 200 204 196 207 215 225 237 235 249 258 267 264 234 209 200 201 197 196 194 188 181 177 174 167 161 155 147 141 136 132 125 113 104 96 88 78 70 68 62 61 61
272 224 205 236 228 215 222 227 237 253 260 246 245 243 241 225 210 212 215 211 204 196 188 188 184 177 170 166 161 152 150 148 143 137 128 119 112 102 89 76 69 64 57 52
253 290 347 262 225 207 208 209 204 235 249 241 238 236 233 224 214 217 218 212 204 200 197 193 185 176 174 169 158 156 157 156 156 151 142 137 130 114 101 89 79 68 56 51
171 126 240 244 234 202 218 239 225 242 258 243 237 243 240 223 215 221 219 213 206 198 192 180 169 164 158 155 159 161 163 163 162 156 148 143 136 126 116 105 93 79 63 53
166 227 277 291 262 190 199 264 235 239 257 260 260 273 269 233 214 219 218 210 202 186 171 160 163 160 154 158 162 166 170 170 168 162 156 153 150 142 131 123 111 100 88 67
169 209 250 257 270 177 138 285 272 237 257 262 184 222 263 238 203 205 191 171 159 145 141 155 160 155 157 164 169 178 177 171 167 164 162 163 158 149 140 139 142 136 112 79
200 229 262 258 259 135 184 256 288 270 267 234 201 220 269 67 107 122 121 121 129 135 146 158 155 156 163 170 182 178 163 159 161 163 164 160 153 149 147 146 148 154 152 338
185 217 252 248 142 183 227 265 287 293 291 229 224 246 83 99 107 112 111 117 129 134 141 147 157 162 170 182 174 156 156 161 165 164 166 160 156 157 156 158 165 182 205 261
197 220 242 225 215 241 241 264 277 282 300 193 180 187 148 134 135 136 139 143 143 145 147 158 169 171 179 177 158 158 162 169 170 167 167 163 168 171 168 173 183 200 209 238
254 267 269 267 261 267 246 245 266 266 256 188 192 181 171 161 166 167 167 167 160 158 168 180 183 185 181 165 164 166 172 175 174 174 174 175 178 181 180 187 197 206 214 229
260 282 307 298 282 287 287 278 287 300 264 197 172 166 173 178 190 190 186 182 181 187 193 194 187 190 180 169 169 174 178 180 181 183 181 186 193 199 197 203 197 200 209 211
243 258 260 281 307 314 303 300 290 275 337 30 99 172 156 195 203 195 195 189 197 206 207 199 190 194 186 178 177 179 184 188 187 186 186 188 194 217 233 224 231 232 224 214
268 297 273 276 302 318 309 323 338 360 7 24 33 40 59 301 269 219 212 207 216 220 216 205 198 199 192 184 184 189 192 190 188 188 189 191 192 201 221 236 238 239 236 234
284 289 285 291 304 332 354 4 38 43 43 47 37 36 37 15 347 297 268 252 239 229 220 210 208 211 196 187 190 196 196 195 193 194 192 194 198 203 203 207 222 240 241 242
304 287 269 288 311 329 346 19 34 23 24 23 24 22 11 340 309 296 290 283 257 238 230 219 221 222 195 189 194 198 197 197 195 192 193 196 197 198 204 211 219 225 227 246
300 294 283 277 279 298 329 12 2 323 352 355 355 344 332 314 304 306 310 299 258 253 246 234 236 232 200 194 196 200 204 205 194 192 193 196 197 201 207 213 219 222 227 225
294 289 280 271 266 270 256 230 224 285 345 346 330 326 331 334 328 327 324 312 280 269 262 249 253 243 209 199 198 201 200 204 202 197 200 200 201 206 209 210 216 223 228 223
287 283 274 263 255 248 240 77 59 37 11 338 335 345 349 344 330 322 319 319 315 308 301 285 274 253 221 207 203 200 196 198 198 202 202 204 207 208 208 212 218 224 229 230
337 340 345 358 6 64 89 73 51 31 10 357 356 352 343 338 330 324 324 331 334 322 321 313 304 274 240 223 207 201 199 200 203 205 202 212 214 211 211 215 219 220 220 218
350 359 12 26 38 49 55 47 41 28 6 358 358 356 351 345 339 332 327 322 324 305 308 316 313 291 265 244 217 204 205 207 208 207 205 209 212 212 214 218 221 221 221 222
344 356 9 22 29 31 25 14 11 3 356 0 358 344 333 330 333 331 327 320 327 325 321 325 322 301 279 265 231 214 212 214 214 211 210 213 217 218 218 219 221 222 222 223
327 334 344 354 356 349 349 352 346 340 345 346 344 339 335 333 334 327 308 301 318 329 330 316 307 304 302 285 234 222 222 223 222 216 214 216 219 222 222 219 221 224 223 222
297 299 303 305 305 304 309 313 311 311 311 316 321 323 320 313 311 315 317 323 320 327 330 310 313 314 311 294 244 235 232 230 228 225 223 221 223 224 225 224 224 224 223 224
276 280 282 284 287 280 280 277 275 277 277 281 280 284 292 305 304 284 289 314 325 327 323 319 326 323 321 308 262 245 238 236 236 234 230 227 225 226 227 226 227 225 225 228
263 265 266 266 266 263 264 269 274 271 272 272 273 272 262 249 267 292 302 306 320 329 323 325 330 331 332 306 283 267 254 245 245 239 230 230 230 229 228 226 227 228 228 230
252 253 253 249 249 253 252 249 254 260 261 274 277 264 262 266 276 290 301 309 315 326 326 318 322 328 325 312 298 287 277 276 276 260 239 235 235 235 234 231 232 232 234 235
257 255 258 264 255 238 233 233 242 250 243 247 266 265 263 273 281 294 306 310 315 317 314 316 321 321 318 315 309 299 289 281 273 264 254 244 240 239 238 236 236 234 234 236